Location: Star Camp Observatory
(34.2910°N, 116.3827°W)
Time: 20:02:45
(UTC-08:00)

N. Korean satellite - Visible Passes

Search period start: 17 November 2019 00:00
Search period end: 27 November 2019 00:00
Orbit: 456 x 506 km, 97.2° (Epoch: 17 November)

Date Brightness Start Highest point End Pass type
(mag) Time Alt. Az. Time Alt. Az. Time Alt. Az.
17 Nov 7.5 05:20:55 10° NNE 05:24:32 53° E 05:28:06 10° S visible
17 Nov 8.6 17:25:59 10° SSW 17:29:13 32° W 17:32:33 10° NNW visible
18 Nov 9.2 04:56:05 10° NE 04:59:05 23° E 05:02:03 10° SSE visible
19 Nov 10.3 04:32:33 10° ENE 04:33:32 11° E 04:34:31 10° ESE visible
20 Nov 6.5 05:38:03 10° N 05:41:45 83° WNW 05:45:21 10° SSW visible
20 Nov 9.7 17:43:51 10° SW 17:46:30 19° W 17:49:12 10° NW visible
21 Nov 8.1 05:12:52 10° NNE 05:16:21 40° E 05:19:45 10° S visible
21 Nov 8.1 17:17:34 10° S 17:21:01 42° W 17:24:33 10° NNW visible
22 Nov 9.6 04:48:15 10° NE 04:50:51 18° E 04:53:25 10° SE visible
23 Nov 6.9 05:55:23 10° N 05:58:53 45° WNW 06:02:19 10° SSW visible
23 Nov 10.2 18:02:33 10° WSW 18:03:48 11° W 18:05:04 10° WNW visible
24 Nov 6.8 05:29:53 10° NNE 05:33:33 75° ESE 05:37:07 10° S visible
24 Nov 9.2 17:35:14 10° SSW 17:38:16 25° W 17:41:20 10° NW visible
25 Nov 8.6 05:04:50 10° NNE 05:08:06 31° E 05:11:19 10° SSE visible
25 Nov 7.4 17:09:13 10° S 17:12:48 56° W 17:16:27 10° NNW visible
26 Nov 9.9 04:40:33 10° ENE 04:42:34 14° E 04:44:34 10° SE visible
